BARLOW-WX Weather Reports


time (UTC)temp
F
wind
direction
speed
knots
gust
knots
rain 1hr
in
rain 24hr
in
rain mn
in
humidity
%
barometer
mb
20260503190154 57 238 18.2 0.0 0.00 0.00 0.00 56 983.8
20260503184621 58 235 18.2 0.0 0.00 0.00 0.00 47 984.6
20260503183631 58 236 17.4 0.0 0.00 0.00 0.00 47 984.6
20260503181618 58 234 18.2 0.0 0.00 0.00 0.00 51 984.8
20260503180200 59 233 17.4 0.0 0.00 0.00 0.00 51 984.8
20260503174617 58 237 18.2 0.0 0.00 0.00 0.00 47 985.3
20260503173138 58 235 18.2 0.0 0.00 0.00 0.00 45 984.6
20260503170148 57 235 18.2 0.0 0.00 0.00 0.00 45 984.6
20260503160158 56 235 15.6 0.0 0.00 0.00 0.00 52 984.1
20260503150154 53 237 13.0 0.0 0.00 0.00 0.00 57 985.2
20260503140205 51 228 13.9 0.0 0.00 0.00 0.00 59 985.2
20260503130152 44 225 9.6 0.0 0.00 0.00 0.00 69 985.5
20260503120205 41 217 7.8 0.0 0.00 0.00 0.00 70 985.7
20260503110152 37 213 7.8 0.0 0.00 0.00 0.00 73 984.8
20260503100154 36 211 7.0 0.0 0.00 0.00 0.00 74 984.8
20260503090149 36 207 7.8 0.0 0.00 0.00 0.00 71 985.0
20260503081618 36 201 7.0 0.0 0.00 0.00 0.00 68 985.5
20260503080145 36 201 6.1 0.0 0.00 0.00 0.00 67 985.0
20260503071618 36 190 6.1 0.0 0.00 0.00 0.00 68 985.7
20260503070148 36 200 6.1 0.0 0.00 0.00 0.00 68 985.7
20260503060208 36 197 5.2 0.0 0.00 0.00 0.00 70 986.7
20260503054618 37 193 4.3 0.0 0.00 0.00 0.00 71 987.1
20260503051618 35 190 4.3 0.0 0.00 0.00 0.00 74 987.3
20260503050149 36 195 4.3 0.0 0.00 0.00 0.00 74 987.3
20260503044617 36 198 3.5 0.0 0.00 0.00 0.00 71 987.6
20260503043137 36 196 3.5 0.0 0.00 0.00 0.00 72 987.1
20260503041618 37 195 4.3 0.0 0.00 0.00 0.00 72 987.1
20260503040151 37 198 4.3 0.0 0.00 0.00 0.00 72 987.1
20260503034618 37 202 4.3 0.0 0.00 0.00 0.00 68 988.2
20260503033139 37 202 4.3 0.0 0.00 0.00 0.00 70 988.3
20260503031618 38 201 4.3 0.0 0.00 0.00 0.00 70 988.3
20260503030150 38 208 4.3 0.0 0.00 0.00 0.00 70 988.3
20260503024618 38 207 3.5 0.0 0.00 0.00 0.00 61 989.0
20260503023137 39 217 3.5 0.0 0.00 0.00 0.00 66 988.7
20260503021618 39 228 4.3 0.0 0.00 0.00 0.00 66 988.7
20260503020148 39 232 4.3 0.0 0.00 0.00 0.00 66 988.7
20260503014618 40 241 4.3 0.0 0.00 0.00 0.00 62 988.2
20260503013136 40 244 4.3 0.0 0.00 0.00 0.00 62 988.2
20260503011618 41 239 4.3 0.0 0.00 0.00 0.00 62 988.2
20260503010148 41 243 4.3 0.0 0.00 0.00 0.00 62 988.2
20260503004617 42 242 4.3 0.0 0.00 0.00 0.00 51 989.0
20260503003131 43 241 4.3 0.0 0.00 0.00 0.00 51 989.2
20260503001618 44 243 2.6 0.0 0.00 0.00 0.00 51 989.2
20260503000153 44 260 2.6 0.0 0.00 0.00 0.00 51 989.2
20260502234620 45 278 3.5 0.0 0.00 0.00 0.00 41 989.1
20260502233131 46 274 5.2 0.0 0.00 0.00 0.00 42 989.1
20260502231619 46 275 6.1 0.0 0.00 0.00 0.00 42 989.1
20260502230146 46 276 7.0 0.0 0.00 0.00 0.00 42 989.1
20260502224619 46 278 7.8 0.0 0.00 0.00 0.00 44 989.4
20260502223137 47 276 8.7 0.0 0.00 0.00 0.00 41 990.2
20260502221619 47 276 8.7 0.0 0.00 0.00 0.00 41 990.2
20260502220146 47 276 9.6 0.0 0.00 0.00 0.00 41 990.2
20260502214619 47 277 9.6 0.0 0.00 0.00 0.00 43 990.2
20260502213137 47 276 8.7 0.0 0.00 0.00 0.00 43 989.9
20260502211619 47 274 8.7 0.0 0.00 0.00 0.00 43 989.9
20260502210148 47 272 8.7 0.0 0.00 0.00 0.00 43 989.9
20260502204618 47 271 8.7 0.0 0.00 0.00 0.00 39 990.3
20260502203137 47 270 8.7 0.0 0.00 0.00 0.00 39 990.8
20260502201619 47 272 8.7 0.0 0.00 0.00 0.00 39 990.8
20260502200146 47 271 9.6 0.0 0.00 0.00 0.00 39 990.8
20260502194619 47 271 9.6 0.0 0.00 0.00 0.00 40 990.9
20260502193132 47 273 9.6 0.0 0.00 0.00 0.00 40 990.9
20260502191619 47 276 9.6 0.0 0.00 0.00 0.00 40 991.0